VDA131 EVRA-EPRZ

Flight info

Callsign VDA131
Flight time 1h 4m
Altitude 37998
Route SID BERIL DCT NAPOT DCT BOKSU M857 VENES
Aircraft IL76/H-IL76/L

Departure

Time 2026-05-04 15:38
Airport Riga International Airport (EVRA)

Arrival

Time 2026-05-04 16:42
Airport Rzeszów-Jasionka Airport (EPRZ)
Time Latitude Longitude Altitude Speed Heading
2026-05-04 15:25 56.91909 23.97707 41 ft 0 kts 185°
2026-05-04 15:28 56.91888 23.97706 40 ft 6 kts 176°
2026-05-04 15:29 56.91832 23.97741 41 ft 10 kts 158°
2026-05-04 15:30 56.91695 23.97489 36 ft 13 kts 277°
2026-05-04 15:30 56.91834 23.97449 35 ft 6 kts
2026-05-04 15:31 56.91962 23.97468 36 ft 11 kts
2026-05-04 15:31 56.92051 23.97479 36 ft 14 kts
2026-05-04 15:32 56.92495 23.97561 37 ft 24 kts
2026-05-04 15:32 56.92675 23.97590 36 ft 0 kts
2026-05-04 15:33 56.92680 23.97590 36 ft 2 kts 359°
2026-05-04 15:34 56.92938 23.97633 36 ft 23 kts
2026-05-04 15:34 56.93096 23.97659 36 ft 21 kts
2026-05-04 15:34 56.93357 23.97611 39 ft 15 kts
2026-05-04 15:35 56.93478 23.97463 39 ft 10 kts 273°
2026-05-04 15:35 56.93469 23.97340 39 ft 9 kts 236°
2026-05-04 15:35 56.93423 23.97295 38 ft 0 kts 184°
2026-05-04 15:36 56.93420 23.97294 38 ft 0 kts 184°
2026-05-04 15:36 56.93419 23.97294 38 ft 0 kts 184°
2026-05-04 15:36 56.93417 23.97294 38 ft 0 kts 184°
2026-05-04 15:37 56.93299 23.97275 38 ft 42 kts 186°
2026-05-04 15:37 56.92825 23.97196 37 ft 93 kts 185°
2026-05-04 15:37 56.92018 23.97064 34 ft 137 kts 186°
2026-05-04 15:37 56.91005 23.96925 309 ft 149 kts 191°
2026-05-04 15:38 56.89950 23.96798 634 ft 155 kts 186°
2026-05-04 15:38 56.88818 23.96636 888 ft 170 kts 189°
2026-05-04 15:38 56.87628 23.96414 1292 ft 175 kts 190°
2026-05-04 15:38 56.86468 23.95864 1758 ft 172 kts 212°
2026-05-04 15:39 56.85655 23.94317 2192 ft 180 kts 236°
2026-05-04 15:39 56.84920 23.92204 2621 ft 207 kts 237°
2026-05-04 15:39 56.83338 23.87493 4073 ft 234 kts 238°
2026-05-04 15:40 56.82494 23.84904 4897 ft 244 kts 237°
2026-05-04 15:40 56.81599 23.82253 5858 ft 247 kts 235°
2026-05-04 15:40 56.80629 23.79717 6883 ft 246 kts 230°
2026-05-04 15:40 56.79377 23.77804 7899 ft 241 kts 208°
2026-05-04 15:41 56.77852 23.76312 8446 ft 258 kts 208°
2026-05-04 15:41 56.76214 23.74812 9125 ft 270 kts 207°
2026-05-04 15:41 56.74500 23.73300 9701 ft 286 kts 206°
2026-05-04 15:41 56.72657 23.71749 10375 ft 299 kts 205°
2026-05-04 15:42 56.70710 23.70182 11049 ft 312 kts 205°
2026-05-04 15:42 56.68698 23.68562 11766 ft 324 kts 204°
2026-05-04 15:42 56.66626 23.66950 12501 ft 334 kts 204°
2026-05-04 15:42 56.64478 23.65262 13341 ft 340 kts 205°
2026-05-04 15:43 56.62351 23.63490 14343 ft 340 kts 206°
2026-05-04 15:43 56.60215 23.61819 15583 ft 331 kts 204°
2026-05-04 15:43 56.58138 23.60298 16802 ft 320 kts 203°
2026-05-04 15:43 56.56088 23.58850 17763 ft 316 kts 203°
2026-05-04 15:44 56.54052 23.57450 18385 ft 322 kts 202°
2026-05-04 15:44 56.52433 23.56426 18943 ft 323 kts 200°
2026-05-04 15:44 56.50319 23.55257 19708 ft 323 kts 199°
2026-05-04 15:44 56.48132 23.54192 20378 ft 325 kts 197°
2026-05-04 15:45 56.45959 23.53190 21020 ft 327 kts 197°
2026-05-04 15:45 56.43756 23.52277 21793 ft 324 kts 195°
2026-05-04 15:45 56.41592 23.51489 22551 ft 320 kts 194°
2026-05-04 15:45 56.39411 23.50727 23228 ft 318 kts 194°
2026-05-04 15:46 56.37233 23.50065 23739 ft 321 kts 192°
2026-05-04 15:46 56.35004 23.49558 24086 ft 330 kts 189°
2026-05-04 15:46 56.32674 23.49223 24451 ft 337 kts 188°
2026-05-04 15:46 56.30323 23.48868 24872 ft 343 kts 187°
2026-05-04 15:47 56.27970 23.48652 25372 ft 346 kts 185°
2026-05-04 15:47 56.25534 23.48554 25806 ft 350 kts 184°
2026-05-04 15:47 56.23092 23.48565 26256 ft 354 kts 182°
2026-05-04 15:47 56.20646 23.48619 26735 ft 356 kts 182°
2026-05-04 15:48 56.18151 23.48724 27191 ft 359 kts 181°
2026-05-04 15:48 56.15682 23.48924 27628 ft 362 kts 181°
2026-05-04 15:48 56.10668 23.48814 28659 ft 359 kts 185°
2026-05-04 15:49 56.08212 23.48643 29125 ft 359 kts 186°
2026-05-04 15:49 56.05730 23.48447 29595 ft 358 kts 186°
2026-05-04 15:49 56.03232 23.48277 30073 ft 357 kts 185°
2026-05-04 15:49 56.00761 23.48151 30482 ft 358 kts 184°
2026-05-04 15:50 55.98283 23.48067 30865 ft 359 kts 184°
2026-05-04 15:50 55.95788 23.48067 31269 ft 359 kts 182°
2026-05-04 15:50 55.93311 23.48131 31691 ft 357 kts 182°
2026-05-04 15:50 55.90846 23.48224 32158 ft 354 kts 181°
2026-05-04 15:51 55.88410 23.48379 32623 ft 350 kts 180°
2026-05-04 15:51 55.86005 23.48600 32911 ft 351 kts 179°
2026-05-04 15:51 55.81008 23.49283 33022 ft 369 kts 178°
2026-05-04 15:52 55.78447 23.49654 33166 ft 375 kts 178°
2026-05-04 15:52 55.75840 23.50081 33294 ft 382 kts 176°
2026-05-04 15:52 55.73184 23.50610 33544 ft 385 kts 176°
2026-05-04 15:52 55.70530 23.51156 33698 ft 392 kts 175°
2026-05-04 15:53 55.67825 23.51711 33878 ft 397 kts 175°
2026-05-04 15:53 55.65049 23.52346 34134 ft 401 kts 174°
2026-05-04 15:53 55.62305 23.53024 34494 ft 401 kts 173°
2026-05-04 15:53 55.59535 23.53809 34642 ft 408 kts 173°
2026-05-04 15:54 55.53859 23.55018 34899 ft 419 kts 182°
2026-05-04 15:54 55.50983 23.54935 35476 ft 412 kts 184°
2026-05-04 15:54 55.48154 23.54810 35958 ft 409 kts 184°
2026-05-04 15:55 55.42335 23.54589 36128 ft 424 kts 183°
2026-05-04 15:55 55.39413 23.54478 36376 ft 427 kts 183°
2026-05-04 15:55 55.36406 23.54363 36482 ft 434 kts 184°
2026-05-04 15:56 55.33432 23.54221 36790 ft 435 kts 184°
2026-05-04 15:56 55.30397 23.54024 36849 ft 443 kts 184°
2026-05-04 15:56 55.24150 23.53672 36939 ft 460 kts 184°
2026-05-04 15:57 55.20932 23.53544 37120 ft 466 kts 184°
2026-05-04 15:57 55.17690 23.53341 37260 ft 471 kts 184°
2026-05-04 15:57 55.14388 23.53065 37500 ft 476 kts 185°
2026-05-04 15:57 55.11095 23.52731 37571 ft 483 kts 185°
2026-05-04 15:58 55.04332 23.51881 37928 ft 491 kts 186°
2026-05-04 15:58 55.00954 23.51703 38497 ft 488 kts 183°
2026-05-04 15:58 54.97579 23.51633 38415 ft 498 kts 182°
2026-05-04 15:59 54.90570 23.51807 38471 ft 512 kts 180°
2026-05-04 15:59 54.83392 23.52097 38470 ft 524 kts 181°
2026-05-04 16:00 54.79738 23.52096 38258 ft 532 kts 182°
2026-05-04 16:00 54.76047 23.51970 38016 ft 539 kts 183°
2026-05-04 16:00 54.68562 23.51591 37714 ft 544 kts 183°
2026-05-04 16:01 54.61084 23.51287 37648 ft 539 kts 184°
2026-05-04 16:01 54.57404 23.50535 37815 ft 532 kts 194°
2026-05-04 16:01 54.53884 23.48687 37827 ft 531 kts 203°
2026-05-04 16:02 54.47006 23.44085 38007 ft 529 kts 204°
2026-05-04 16:02 54.40167 23.39389 37873 ft 536 kts 204°
2026-05-04 16:03 54.36726 23.36965 37742 ft 536 kts 205°
2026-05-04 16:03 54.33292 23.34538 37609 ft 537 kts 204°
2026-05-04 16:03 54.29884 23.32163 37593 ft 534 kts 203°
2026-05-04 16:03 54.26426 23.29819 37847 ft 531 kts 204°
2026-05-04 16:04 54.23050 23.27437 38054 ft 529 kts 204°
2026-05-04 16:04 54.12919 23.19969 37964 ft 535 kts 205°
2026-05-04 16:05 54.06147 23.14796 37982 ft 533 kts 206°
2026-05-04 16:05 53.99387 23.09632 37786 ft 535 kts 205°
2026-05-04 16:06 53.96018 23.07175 37810 ft 533 kts 205°
2026-05-04 16:06 53.86879 23.00750 37959 ft 527 kts 205°
2026-05-04 16:07 53.82444 22.97364 38040 ft 530 kts 207°
2026-05-04 16:07 53.72593 22.88965 37736 ft 528 kts 207°
2026-05-04 16:08 53.69283 22.86383 37870 ft 528 kts 207°
2026-05-04 16:08 53.59227 22.78775 37583 ft 535 kts 206°
2026-05-04 16:09 53.52425 22.73701 37323 ft 531 kts 206°
2026-05-04 16:09 53.45779 22.68726 37859 ft 527 kts 205°
2026-05-04 16:10 53.38851 22.65084 38540 ft 524 kts 195°
2026-05-04 16:11 53.28002 22.61117 37494 ft 541 kts 194°
2026-05-04 16:11 53.24351 22.59655 37404 ft 536 kts 195°
2026-05-04 16:12 53.02700 22.51861 38161 ft 527 kts 194°
2026-05-04 16:13 52.95642 22.49412 38883 ft 503 kts 195°
2026-05-04 16:13 52.88768 22.47110 39060 ft 514 kts 187°
2026-05-04 16:14 52.81735 22.48127 39447 ft 518 kts 174°
2026-05-04 16:14 52.74565 22.49555 39456 ft 524 kts 178°
2026-05-04 16:15 52.63559 22.49929 38868 ft 537 kts 182°
2026-05-04 16:16 52.56134 22.50022 38439 ft 537 kts 181°
2026-05-04 16:16 52.45042 22.50549 38334 ft 534 kts 180°
2026-05-04 16:17 52.37656 22.50645 38319 ft 533 kts 183°
2026-05-04 16:18 52.26543 22.50179 38021 ft 536 kts 183°
2026-05-04 16:18 52.22831 22.50095 37988 ft 534 kts 182°
2026-05-04 16:19 52.11790 22.50386 38271 ft 534 kts 182°
2026-05-04 16:19 52.04375 22.50242 38130 ft 534 kts 183°
2026-05-04 16:20 51.93390 22.50101 38461 ft 533 kts 183°
2026-05-04 16:20 51.85989 22.49970 38352 ft 535 kts 181°
2026-05-04 16:21 51.74821 22.50407 37494 ft 540 kts 181°
2026-05-04 16:22 51.67362 22.50380 37092 ft 535 kts 182°
2026-05-04 16:22 51.56282 22.50109 37553 ft 528 kts 182°
2026-05-04 16:23 51.45193 22.50112 37337 ft 535 kts 184°
2026-05-04 16:24 51.30430 22.50068 37569 ft 537 kts 180°
2026-05-04 16:25 51.22865 22.50327 35153 ft 551 kts 182°
2026-05-04 16:26 51.07713 22.49827 29567 ft 551 kts 182°
2026-05-04 16:26 50.96314 22.50184 26159 ft 549 kts 180°
2026-05-04 16:27 50.88764 22.50661 24465 ft 548 kts 180°
2026-05-04 16:28 50.77347 22.50388 21911 ft 544 kts 183°
2026-05-04 16:28 50.66222 22.50651 20030 ft 534 kts 181°
2026-05-04 16:29 50.51959 22.50532 17134 ft 526 kts 183°
2026-05-04 16:30 50.41207 22.50569 15707 ft 506 kts 180°
2026-05-04 16:31 50.35001 22.51035 15356 ft 392 kts 179°
2026-05-04 16:31 50.28837 22.51814 14642 ft 242 kts 179°
2026-05-04 16:32 50.24306 22.51915 13018 ft 214 kts 183°
2026-05-04 16:33 50.21375 22.52060 11730 ft 210 kts 180°
2026-05-04 16:33 50.18204 22.52169 10107 ft 239 kts 183°
2026-05-04 16:34 50.14894 22.52195 8966 ft 241 kts 181°
2026-05-04 16:34 50.13203 22.52240 8210 ft 247 kts 181°
2026-05-04 16:35 50.10789 22.48148 7213 ft 181 kts 280°
2026-05-04 16:35 50.10830 22.42188 6740 ft 201 kts 273°
2026-05-04 16:36 50.10935 22.40031 6539 ft 200 kts 271°
2026-05-04 16:36 50.10844 22.35976 5795 ft 174 kts 264°
2026-05-04 16:37 50.10655 22.32412 4719 ft 149 kts 266°
2026-05-04 16:37 50.10748 22.30883 4345 ft 138 kts 270°
2026-05-04 16:37 50.10808 22.27932 3674 ft 136 kts 267°
2026-05-04 16:38 50.10862 22.25049 3045 ft 133 kts 268°
2026-05-04 16:39 50.10948 22.20755 2383 ft 133 kts 266°
2026-05-04 16:39 50.10995 22.17861 2258 ft 138 kts 266°
2026-05-04 16:40 50.10983 22.14787 2135 ft 140 kts 266°
2026-05-04 16:40 50.10943 22.11808 1659 ft 135 kts 263°
2026-05-04 16:41 50.10917 22.08888 1236 ft 138 kts 266°
2026-05-04 16:41 50.10964 22.04475 678 ft 123 kts 264°
2026-05-04 16:42 50.10992 22.02300 687 ft 11 kts 294°
2026-05-04 16:43 50.11081 22.02296 688 ft 4 kts
2026-05-04 16:43 50.11165 22.02298 689 ft 12 kts
2026-05-04 16:43 50.11276 22.02303 692 ft 16 kts
2026-05-04 16:44 50.11423 22.02332 693 ft 0 kts